Location: Peterborough
(44.3091°N, 78.3197°W)
Time: 07:28:06
(UTC-04:00)

Vanguard 1 Rocket - Pass Details

Date: 31 March 2023
Orbit: 655 x 4220 km, 34.3° (Epoch: 04 June)

Event Time Altitude Azimuth Distance (km) Brightness Sun altitude
Rises 04:55:46 0° 280° (W) 6,919 - -21.3°
Reaches altitude 10° 05:02:35 10° 267° (W) 5,171 - -20.3°
Maximum altitude 05:11:16 20° 228° (SW) 3,357 - -18.9°
Exits shadow 05:13:04 19° 214° (SW) 3,197 9.7 -18.6°
Drops below altitude 10° 05:17:11 10° 184° (S) 3,337 10.0 -17.9°
Sets 05:20:22 0° 166° (SSE) 3,904 10.5 -17.4°
